Other Public Products
Issued by NWS Charleston, SC

Current Version | Previous Version | Graphics & Text | Print | Product List | Glossary On
Versions: 1 2 3 4 5 6 7 8 9 10 11 12 13 14 15 16 17 18 19 20 21 22 23 24 25 26 27 28 29 30 31 32 33 34 35 36 37 38 39 40 41 42 43 44 45 46 47 48 49 50
000
FPUS82 KCHS 221741
OPUCHS

TEST...KCHS/KSAV Gateway Observations...TEST
National Weather Service Charleston SC
100 PM EDT FRI SEP 22 2017

NOTE: "fair" indicates few or no clouds below 12,000 feet with no
significant weather and/or obstructions to visibility.

SCZ050-WAZ558-NCZ071-TXZ119-213-PAZ071-DCZ001-FLZ074-172-MI076-
NYZ176-178-MAZ016-IL014-TNZ027-NJZ106-GAZ044-MD014-221800-

...Gateway Observations for Charleston International...

CITY           SKY/WX    TMP DP  RH WIND       PRES   REMARKS
Chas Airport   MOSUNNY   85  70  60 N7        30.03F
Seattle        MOSUNNY   56  49  77 CALM      30.07R
Charlotte      MOSUNNY   86  62  44 NE6       30.09F
Dallas DFW     PTSUNNY   86  72  62 S13       29.98S HX  92
Dallas Love    PTSUNNY   84  70  62 S9        29.99F
Philladelphia  CLOUDY    77  57  50 VRB7      30.02F
Wash National  CLOUDY    80  65  59 CALM      30.06F
Baltimore      CLOUDY    80  66  62 W8        30.04F
Miami          TSTM      79  79 100 NW9       29.89F
Detroit        SUNNY     85  70  60 CALM      30.13S
Newark         PTSUNNY   80  53  39 N15G23    29.98F
Laguardia      MOSUNNY   78  56  46 N20       29.97F
J F K          MOSUNNY   81  55  40 N21G28    29.97F
Boston Logan   LGT RAIN  60  56  86 N25G36    30.01S
Ft. Lauderdale CLOUDY    84  79  85 CALM      29.88F HX  96
Chicago O`Hare MOSUNNY   91  65  41 SW13      30.07S HX  93
Chicago Midway MOSUNNY   91  67  44 SW6       30.07F HX  94
Houston Bush   MOSUNNY   87  70  56 SE9       29.98F HX  92
Houston Hobby  MOSUNNY   88  72  58 E6        29.98F HX  94
Nashville      MOSUNNY   87  66  49 CALM      30.07F
Atlanta        MOSUNNY   85  68  56 VRB3      30.07F

$$

GAZ044-118-TXZ119-213-NCZ071-DCZ001-MDZ014-506-PAZ021-071-NJZ106-
NYZ176-178-MAZ106-OHZ011-021-055-MIZ076-KYZ091-ILZ014-INZ047-
MNZ060-ONZ431-221800-

...Gateway Observations for Savannah International...

CITY           SKY/WX    TMP DP  RH WIND       PRES   REMARKS
Savannah Arpt  MOSUNNY   88  69  53 E8        30.03F HX  92
Atlanta        MOSUNNY   85  68  56 VRB3      30.07F
Charlotte      MOSUNNY   86  62  44 NE6       30.09F
Dallas DFW     PTSUNNY   86  72  62 S13       29.98S HX  92
Houston Bush   MOSUNNY   87  70  56 SE9       29.98F HX  92
Wash National  CLOUDY    80  65  59 CALM      30.06F
Wash Dulles    CLOUDY    81  64  56 VRB5      30.07F
Baltimore      CLOUDY    80  66  62 W8        30.04F
Philadelphia   CLOUDY    77  57  50 VRB7      30.02F
Newark         PTSUNNY   80  53  39 N15G23    29.98F
Laguardia      MOSUNNY   78  56  46 N20       29.97F
J F K          MOSUNNY   81  55  40 N21G28    29.97F
Boston         LGT RAIN  60  56  86 N25G36    30.01S
Pittsburg      PTSUNNY   83  59  44 N9        30.14F
Akron          PTSUNNY   85  61  44 SE5       30.14F
Cleveland      MOSUNNY   88  62  41 CALM      30.13F
Cincinnati     MOSUNNY   87  69  54 VRB3      30.11F HX  91
Columbus       SUNNY     85  65  51 CALM      30.10F
Detroit        SUNNY     85  70  60 CALM      30.13S
Chicago O`Hare MOSUNNY   91  65  41 SW13      30.07S HX  93
Minneapolis    MOSUNNY   85  73  67 VRB5      29.85S HX  91
Indianapolis   MOSUNNY   89  68  49 N3        30.10F HX  93
Toronto Canada MOSUNNY   81  57  44 SE8       30.14F

$$




USA.gov is the U.S. government's official web portal to all federal, state and local government web resources and services.